This demonstration page uses our WeatherBlox Daily Observations layout. Learn more.

Left ArrowRight Arrow

44.89941, -97.11507

Hourly Observations for May 5, 2019

Temp ( °F °C ) Dew Point ( °F °C ) Humidity (%) Winds ( mph kmh ) Pressure ( in mb ) Visibility ( mi km ) Precip ( " mm )
12:53 am 00:53 Mostly Cloudy 44 6.7 37 2.8 76 76 NNE 5 7 29.85 1011 10 16 0.00 0.00
1:53 am 01:53 Partly Cloudy 42 5.6 37 2.8 82 82 NNE 8 13 29.85 1011 10 16 0.00 0.00
2:53 am 02:53 Mostly Clear 41 5 36 2.2 82 82 NE 3 6 29.85 1011 10 16 0.00 0.00
3:53 am 03:53 Mostly Clear 38 3.3 34 1.1 86 86 N 7 11 29.86 1011 10 16 0.00 0.00
4:53 am 04:53 Partly Cloudy 38 3.3 35 1.7 89 89 NNE 7 11 29.86 1011 10 16 0.00 0.00
5:53 am 05:53 Cloudy 40 4.4 36 2.2 86 86 N 9 15 29.87 1011 10 16 0.00 0.00
6:53 am 06:53 Cloudy 40 4.4 35 1.7 83 83 N 8 13 29.87 1012 10 16 0.00 0.00
7:53 am 07:53 Cloudy 42 5.6 33 0.6 71 71 NNE 10 17 29.90 1013 10 16 0.00 0.00
8:53 am 08:53 Mostly Sunny 46 7.8 32 0 58 58 NNE 15 24 29.91 1013 10 16 0.00 0.00
9:53 am 09:53 Sunny 50 10 29 -1.7 44 44 NNE 18 30 29.91 1013 10 16 0.00 0.00
10:53 am 10:53 Sunny 52 11.1 28 -2.2 40 40 NNE 15 24 29.91 1013 10 16 0.00 0.00
11:53 am 11:53 Sunny 54 12.2 28 -2.2 37 37 NE 15 24 29.91 1013 10 16 0.00 0.00
12:53 pm 12:53 Cloudy 56 13.3 30 -1.1 37 37 NE 9 15 29.93 1014 10 16 0.00 0.00
1:53 pm 13:53 Cloudy 55 12.8 30 -1.1 38 38 N 16 26 29.93 1014 10 16 0.00 0.00
2:53 pm 14:53 Cloudy 51 10.6 33 0.6 50 50 N 12 19 29.94 1014 10 16 0.00 0.00
3:53 pm 15:53 Cloudy 50 10 30 -1.1 46 46 NE 8 13 29.94 1014 10 16 0.00 0.00
4:53 pm 16:53 Cloudy 50 10 30 -1.1 46 46 NNE 14 22 29.94 1014 10 16 0.00 0.00
5:53 pm 17:53 Cloudy 46 7.8 33 0.6 61 61 N 16 26 29.96 1015 10 16 0.00 0.00
6:53 pm 18:53 Cloudy 46 7.8 34 1.1 63 63 N 10 17 29.96 1014 10 16 0.00 0.00
7:53 pm 19:53 Cloudy with Light Rain 44 6.7 35 1.7 71 71 N 10 17 29.96 1015 10 16 0.00 0.03
8:53 pm 20:53 Cloudy 43 6.1 36 2.2 76 76 N 8 13 29.98 1015 10 16 0.00 0.03
9:53 pm 21:53 Cloudy 43 6.1 36 2.2 76 76 N 5 7 30.00 1016 10 16 0.00 0.00
10:53 pm 22:53 Cloudy 45 7.2 36 2.2 71 71 Calm 30.02 1017 10 16 0.00 0.00
11:53 pm 23:53 Cloudy 45 7.2 36 2.2 71 71 VRB 5 7 30.04 1017 10 16 0.00 0.00

Powered by AerisWeather